This is the latest recevied weather packets stored in our database for station/object VE3VGJ. If no packets are shown the sender has not sent any weather packets the latest 10 day(s).
| Time | Temp. | Humidity | Pressure | Rain* | Wind** | Luminosity | Snow |
|---|---|---|---|---|---|---|---|
| 1777848580 | 6.11° C | 87% | 1008.3 hPa | 1.78 mm | - | 16 W/m² | - |
| 1777848277 | 6.11° C | 86% | 1008.4 hPa | 1.27 mm | - | 14 W/m² | - |
| 1777847975 | 6.11° C | 85% | 1008.5 hPa | 1.27 mm | - | 31 W/m² | - |
| 1777847673 | 6.11° C | 85% | 1008.8 hPa | 0 mm | - | 30 W/m² | - |
| 1777847368 | 6.11° C | 83% | 1008.6 hPa | 1.78 mm | - | 17 W/m² | - |
| 1777847067 | 6.11° C | 82% | 1008.7 hPa | 1.78 mm | - | 16 W/m² | - |
| 1777846765 | 6.11° C | 79% | 1008.7 hPa | 0 mm | - | 22 W/m² | - |
| 1777846463 | 6.67° C | 79% | 1008.7 hPa | 1.27 mm | - | 22 W/m² | - |
| 1777846160 | 7.22° C | 77% | 1008.6 hPa | 1.27 mm | - | 23 W/m² | - |
| 1777845856 | 7.78° C | 74% | 1008.6 hPa | 1.78 mm | - | 24 W/m² | - |
| 1777845553 | 7.78° C | 71% | 1008.6 hPa | 1.78 mm | - | 49 W/m² | - |
| 1777845250 | 8.33° C | 69% | 1009 hPa | 0 mm | - | 35 W/m² | - |
| 1777844948 | 8.89° C | 66% | 1008.7 hPa | 0 mm | - | 50 W/m² | - |
| 1777844645 | 8.89° C | 64% | 1008.3 hPa | 0 mm | - | 42 W/m² | - |
| 1777844342 | 9.44° C | 61% | 1008.2 hPa | 0 mm | - | 44 W/m² | - |
| 1777844040 | 9.44° C | 55% | 1008.1 hPa | 0 mm | - | 65 W/m² | - |
| 1777843736 | 10° C | 54% | 1008.4 hPa | 0 mm | - | 77 W/m² | - |
| 1777843434 | 10.56° C | 53% | 1008 hPa | 0 mm | - | 54 W/m² | - |
| 1777843131 | 10.56° C | 49% | 1008 hPa | 0 mm | - | 44 W/m² | - |
| 1777842828 | 11.11° C | 51% | 1008.1 hPa | 0 mm | - | 41 W/m² | - |
| 1777842523 | 11.11° C | 48% | 1007.8 hPa | 0 mm | - | 41 W/m² | - |
| 1777842221 | 11.67° C | 48% | 1007.9 hPa | 0 mm | - | 93 W/m² | - |
| 1777841915 | 11.67° C | 47% | 1008 hPa | 0 mm | - | 138 W/m² | - |
| 1777841612 | 11.67° C | 46% | 1008 hPa | 0 mm | - | 145 W/m² | - |
| 1777841309 | 11.67° C | 43% | 1008.1 hPa | 0 mm | - | 208 W/m² | - |
* Rain latest hour (hover to see other rain measurements)
** Current wind speed in m/s (hover to see current wind gust speed)